NOAA 16 DEB, 41716

Orbit data source: Space-Track

NOAA 16 DEB, 41716 is space debris in SSO originally from a launch on Thu, 21 Sep 2000 UTC launched from the Air Force Western Test Range (AFWTR). Debris objects in space refer to the collection of defunct objects orbiting the Earth. Examples of debris include non-operational satellites, rocket bodies, and fragments generated from explosions, collisions, or faulty payload assembly.

Loading next visibility...
Identifier
41716, 2000-055PW
Orbit
SSO
Country
Flag of USUS
Related business
Manufacturer
Unknown
Mission
Spacecraft
Bus & Motor
Unknown
Mass
Unknown
Launch date (UTC)
2000-09-21 (26 years ago)
Launch vehicle
Unknown
Launch site
Air Force Western Test Range (AFWTR)
Object type
Payload
Rocket body
Debris
Shape & HBR
Unknown shape, 0.1 m
Radar Cross Section
Small (<0.1 m²)

Expand to show TLE details & history
Last TLE update: 20 hours ago

TLE from 20 hours ago
0 NOAA 16 DEB
1 41716U 00055PW  26106.98901250  .00001926  00000-0  79163-3 0  9995
2 41716  98.6324 175.3474 0002680  24.0698 336.0608 14.28136244517610
Epoch: 2026-04-16T23:44Z
TLE epoch observation values (Epoch: 2026-04-16T23:44:10.679Z)
Latitude
-0.00006°
Longitude
-25.82574°
Altitude
799.137 km
Speed
7.455 km/s
True Right ascension
11h 41m 23s
True Declination
0° 00' 00"
Sunlit
Object was in full shadow at epoch
Visualization orbit readout
Latitude
Unknown
Longitude
Unknown
Altitude
Unknown
Speed
Unknown
Apparent Right ascension
Unknown
Apparent Declination
Unknown
Sunlit
N/A
Visualization observer readout
Local Sidereal Time
02:15:30
Azimuth
Unknown
Elevation
Unknown
Doppler factor
Unknown
Orbital elements
Apogee altitude
797.034 km
Perigee altitude
793.189 km
Semi-major axis
7,173.248 km
Eccentricity
0.00027
Inclination
98.6324°
RAAN
175.3474°
Arg. of periapsis
24.0698°
True anomaly
336.04833°
Mean anomaly
336.0608°
Eccentric anomaly
336.05457°
Mean motion
3.57248 °/min
Orbital period
100.77 mins
BSTAR
0.00079163
Loading maneuver chart data...
Computing Atmospheric mass density...
Loading historical data...
Loading historical data...
Loading historical data...
Loading historical data...
Loading historical data...
Loading historical data...
Loading historical data...

Documentation

Showing up to 5 results
|